Time,TemperatureF,DewpointF,PressureIn,WindDirection,WindDirectionDegrees,WindSpeedMPH,WindSpeedGustMPH,Humidity,HourlyPrecipIn,Conditions,Clouds,dailyrainin,SoftwareType,DateUTC
2013-01-31 13:17:00,27.7,8.1,21.67,West,270,7.6,7.6,43,0.00,,---,0.00,VWS V14.01,2013-01-31 20:17:00,
2013-01-31 13:18:00,28.2,9.1,21.67,SW,225,4.9,7.6,44,0.00,,---,0.00,VWS V14.01,2013-01-31 20:18:00,
2013-01-31 13:19:00,28.2,9.1,21.67,WNW,292,3.6,6.3,44,0.00,,---,0.00,VWS V14.01,2013-01-31 20:19:00,
2013-01-31 13:22:00,28.6,8.9,21.67,West,270,5.8,5.8,43,0.00,,---,0.00,VWS V14.01,2013-01-31 20:22:00,
2013-01-31 13:27:00,28.9,9.3,21.67,East,90,5.8,6.3,43,0.00,,---,0.00,VWS V14.01,2013-01-31 20:27:00,
2013-01-31 13:32:00,30.9,11.1,21.67,West,270,9.6,9.6,43,0.00,,---,0.00,VWS V14.01,2013-01-31 20:32:00,
2013-01-31 13:37:00,30.7,10.9,21.67,North,0,2.2,2.2,43,0.00,,---,0.00,VWS V14.01,2013-01-31 20:37:00,
2013-01-31 13:42:00,30.0,10.2,21.67,North,0,10.5,13.2,43,0.00,,---,0.00,VWS V14.01,2013-01-31 20:42:00,
2013-01-31 13:47:00,30.0,9.7,21.67,East,90,5.4,8.1,42,0.00,,---,0.00,VWS V14.01,2013-01-31 20:47:00,
2013-01-31 13:52:00,30.0,9.7,21.67,East,90,7.6,7.6,42,0.00,,---,0.00,VWS V14.01,2013-01-31 20:52:00,
2013-01-31 13:57:00,28.6,8.4,21.67,North,0,10.1,10.1,42,0.00,,---,0.00,VWS V14.01,2013-01-31 20:57:00,
2013-01-31 14:02:00,28.4,8.2,21.67,WNW,292,5.8,13.6,42,0.00,,---,0.00,VWS V14.01,2013-01-31 21:02:00,
2013-01-31 14:07:00,28.6,8.4,21.67,WSW,248,12.3,13.2,42,0.00,,---,0.00,VWS V14.01,2013-01-31 21:07:00,
2013-01-31 14:13:00,28.9,8.7,21.67,SW,225,8.3,8.3,42,0.00,,---,0.00,VWS V14.01,2013-01-31 21:13:00,
2013-01-31 14:18:00,29.3,9.1,21.67,West,270,8.3,8.3,42,0.00,,---,0.00,VWS V14.01,2013-01-31 21:18:00,
2013-01-31 14:23:00,29.5,9.2,21.67,NW,315,4.9,6.7,42,0.00,,---,0.00,VWS V14.01,2013-01-31 21:23:00,
2013-01-31 14:28:00,29.7,9.4,21.67,NE,45,8.1,8.1,42,0.00,,---,0.00,VWS V14.01,2013-01-31 21:28:00,
2013-01-31 14:33:00,29.3,9.1,21.67,West,270,9.6,14.5,42,0.00,,---,0.00,VWS V14.01,2013-01-31 21:33:00,
2013-01-31 14:38:00,29.7,9.4,21.67,South,180,4.0,5.8,42,0.00,,---,0.00,VWS V14.01,2013-01-31 21:38:00,
2013-01-31 14:43:00,28.9,8.7,21.67,South,180,12.8,14.1,42,0.00,,---,0.00,VWS V14.01,2013-01-31 21:43:00,
2013-01-31 14:48:00,29.7,9.4,21.64,NW,315,5.8,8.7,42,0.00,,---,0.00,VWS V14.01,2013-01-31 21:48:00,
2013-01-31 14:53:00,29.1,8.9,21.64,South,180,8.3,10.5,42,0.00,,---,0.00,VWS V14.01,2013-01-31 21:53:00,
2013-01-31 14:58:00,28.9,8.7,21.64,NW,315,3.1,5.4,42,0.00,,---,0.00,VWS V14.01,2013-01-31 21:58:00,
2013-01-31 15:04:00,29.1,8.9,21.64,WNW,292,8.7,8.7,42,0.00,,---,0.00,VWS V14.01,2013-01-31 22:04:00,
2013-01-31 15:09:00,28.9,8.2,21.64,NW,315,8.7,12.3,41,0.00,,---,0.00,VWS V14.01,2013-01-31 22:09:00,
2013-01-31 15:15:00,28.6,7.9,21.64,NW,315,12.3,12.8,41,0.00,,---,0.00,VWS V14.01,2013-01-31 22:15:00,
2013-01-31 15:20:00,28.6,7.9,21.67,WNW,292,5.8,15.4,41,0.00,,---,0.00,VWS V14.01,2013-01-31 22:20:00,
2013-01-31 15:25:00,28.6,7.9,21.67,NW,315,6.3,10.1,41,0.00,,---,0.00,VWS V14.01,2013-01-31 22:25:00,
2013-01-31 15:30:00,28.2,8.1,21.67,North,0,10.5,12.8,42,0.00,,---,0.00,VWS V14.01,2013-01-31 22:30:00,
2013-01-31 15:35:00,28.2,8.1,21.64,WNW,292,5.8,5.8,42,0.00,,---,0.00,VWS V14.01,2013-01-31 22:35:00,
2013-01-31 15:40:00,27.9,7.8,21.64,West,270,8.1,8.3,42,0.00,,---,0.00,VWS V14.01,2013-01-31 22:40:00,
2013-01-31 15:45:00,27.7,7.6,21.67,NW,315,3.1,4.9,42,0.00,,---,0.00,VWS V14.01,2013-01-31 22:45:00,
2013-01-31 15:50:00,27.3,7.3,21.67,West,270,6.7,11.9,42,0.00,,---,0.00,VWS V14.01,2013-01-31 22:50:00,
2013-01-31 15:55:00,27.0,6.9,21.67,North,0,3.1,7.2,42,0.00,,---,0.00,VWS V14.01,2013-01-31 22:55:00,
2013-01-31 16:00:00,27.0,6.9,21.67,NW,315,4.9,7.2,42,0.00,,---,0.00,VWS V14.01,2013-01-31 23:00:00,
2013-01-31 16:05:00,27.0,6.9,21.67,NNW,338,3.6,7.2,42,0.00,,---,0.00,VWS V14.01,2013-01-31 23:05:00,
2013-01-31 16:15:00,26.8,6.8,21.67,NW,315,6.3,8.3,42,0.00,,---,0.00,VWS V14.01,2013-01-31 23:15:00,
2013-01-31 16:20:00,26.1,6.1,21.67,WNW,292,3.1,14.1,42,0.00,,---,0.00,VWS V14.01,2013-01-31 23:20:00,
2013-01-31 16:26:00,25.7,5.8,21.67,NW,315,6.3,15.0,42,0.00,,---,0.00,VWS V14.01,2013-01-31 23:26:00,
2013-01-31 16:31:00,25.7,6.3,21.67,NW,315,7.6,8.1,43,0.00,,---,0.00,VWS V14.01,2013-01-31 23:31:00,
2013-01-31 16:36:00,25.7,5.8,21.67,WNW,292,5.4,11.9,42,0.00,,---,0.00,VWS V14.01,2013-01-31 23:36:00,
2013-01-31 16:41:00,25.7,5.8,21.67,SW,225,10.1,12.3,42,0.00,,---,0.00,VWS V14.01,2013-01-31 23:41:00,
2013-01-31 16:46:00,25.5,6.2,21.67,NW,315,11.4,11.4,43,0.00,,---,0.00,VWS V14.01,2013-01-31 23:46:00,
2013-01-31 16:51:00,25.7,5.8,21.67,NW,315,3.1,17.5,42,0.00,,---,0.00,VWS V14.01,2013-01-31 23:51:00,
2013-01-31 16:56:00,25.3,6.0,21.67,SW,225,8.1,8.1,43,0.00,,---,0.00,VWS V14.01,2013-01-31 23:56:00,
2013-01-31 17:01:00,25.3,6.0,21.67,NW,315,8.3,8.7,43,0.00,,---,0.00,VWS V14.01,2013-02-01 00:01:00,
2013-01-31 17:06:00,25.3,6.0,21.67,NW,315,10.1,10.1,43,0.00,,---,0.00,VWS V14.01,2013-02-01 00:06:00,
2013-01-31 17:11:00,25.3,6.0,21.67,NW,315,6.3,12.3,43,0.00,,---,0.00,VWS V14.01,2013-02-01 00:11:00,
2013-01-31 17:16:00,25.5,5.6,21.67,West,270,8.1,12.3,42,0.00,,---,0.00,VWS V14.01,2013-02-01 00:16:00,
2013-01-31 17:21:00,25.5,5.6,21.67,NW,315,4.0,6.3,42,0.00,,---,0.00,VWS V14.01,2013-02-01 00:21:00,
2013-01-31 17:26:00,25.5,5.6,21.67,NE,45,4.0,4.9,42,0.00,,---,0.00,VWS V14.01,2013-02-01 00:26:00,
2013-01-31 17:31:00,25.9,6.0,21.67,NW,315,4.5,12.3,42,0.00,,---,0.00,VWS V14.01,2013-02-01 00:31:00,
2013-01-31 17:36:00,25.9,6.0,21.67,NW,315,5.4,6.3,42,0.00,,---,0.00,VWS V14.01,2013-02-01 00:36:00,
2013-01-31 17:41:00,26.1,6.1,21.67,NNW,338,4.0,5.8,42,0.00,,---,0.00,VWS V14.01,2013-02-01 00:41:00,
2013-01-31 17:46:00,25.9,6.0,21.67,West,270,8.7,11.4,42,0.00,,---,0.00,VWS V14.01,2013-02-01 00:46:00,
2013-01-31 17:51:00,25.9,6.0,21.67,East,90,4.0,4.9,42,0.00,,---,0.00,VWS V14.01,2013-02-01 00:51:00,
2013-01-31 17:57:00,25.3,5.5,21.67,NE,45,7.6,7.6,42,0.00,,---,0.00,VWS V14.01,2013-02-01 00:57:00,
2013-01-31 18:02:00,25.3,5.5,21.70,West,270,3.1,6.3,42,0.00,,---,0.00,VWS V14.01,2013-02-01 01:02:00,
2013-01-31 18:07:00,25.9,6.0,21.70,NE,45,5.4,11.0,42,0.00,,---,0.00,VWS V14.01,2013-02-01 01:07:00,
2013-01-31 18:12:00,25.9,6.0,21.70,North,0,4.9,5.8,42,0.00,,---,0.00,VWS V14.01,2013-02-01 01:12:00,
2013-01-31 18:17:00,25.9,6.0,21.70,North,0,2.2,4.0,42,0.00,,---,0.00,VWS V14.01,2013-02-01 01:17:00,
2013-01-31 18:22:00,25.2,5.8,21.70,North,0,3.1,8.3,43,0.00,,---,0.00,VWS V14.01,2013-02-01 01:22:00,
2013-01-31 18:27:00,25.0,5.7,21.70,NNW,338,5.4,5.4,43,0.00,,---,0.00,VWS V14.01,2013-02-01 01:27:00,
2013-01-31 18:32:00,25.0,5.7,21.70,NW,315,4.0,4.0,43,0.00,,---,0.00,VWS V14.01,2013-02-01 01:32:00,
2013-01-31 18:37:00,25.3,6.0,21.70,NE,45,5.8,5.8,43,0.00,,---,0.00,VWS V14.01,2013-02-01 01:37:00,
2013-01-31 18:42:00,25.3,6.0,21.70,NW,315,6.3,6.3,43,0.00,,---,0.00,VWS V14.01,2013-02-01 01:42:00,
2013-01-31 18:47:00,24.6,5.8,21.70,North,0,2.7,4.0,44,0.00,,---,0.00,VWS V14.01,2013-02-01 01:47:00,
2013-01-31 18:52:00,24.4,5.7,21.70,NW,315,3.1,3.6,44,0.00,,---,0.00,VWS V14.01,2013-02-01 01:52:00,
2013-01-31 18:57:00,24.3,5.5,21.70,NW,315,4.0,4.0,44,0.00,,---,0.00,VWS V14.01,2013-02-01 01:57:00,
2013-01-31 19:02:00,24.1,5.3,21.70,North,0,4.5,4.5,44,0.00,,---,0.00,VWS V14.01,2013-02-01 02:02:00,
2013-01-31 19:07:00,24.1,5.3,21.70,North,0,5.8,5.8,44,0.00,,---,0.00,VWS V14.01,2013-02-01 02:07:00,
2013-01-31 19:12:00,23.5,5.3,21.70,NW,315,3.6,4.9,45,0.00,,---,0.00,VWS V14.01,2013-02-01 02:12:00,
2013-01-31 19:17:00,23.7,5.5,21.70,NW,315,3.1,4.0,45,0.00,,---,0.00,VWS V14.01,2013-02-01 02:17:00,
2013-01-31 19:22:00,23.5,5.8,21.70,North,0,3.6,3.6,46,0.00,,---,0.00,VWS V14.01,2013-02-01 02:22:00,
2013-01-31 19:27:00,23.4,5.7,21.70,NW,315,4.0,4.0,46,0.00,,---,0.00,VWS V14.01,2013-02-01 02:27:00,
2013-01-31 19:32:00,23.4,6.1,21.73,NW,315,5.8,5.8,47,0.00,,---,0.00,VWS V14.01,2013-02-01 02:32:00,
2013-01-31 19:37:00,23.4,6.1,21.73,NW,315,3.6,5.8,47,0.00,,---,0.00,VWS V14.01,2013-02-01 02:37:00,
2013-01-31 19:42:00,23.2,5.9,21.73,NW,315,3.6,4.0,47,0.00,,---,0.00,VWS V14.01,2013-02-01 02:42:00,
2013-01-31 19:47:00,22.8,6.1,21.73,NW,315,4.0,4.9,48,0.00,,---,0.00,VWS V14.01,2013-02-01 02:47:00,
2013-01-31 19:52:00,22.8,6.1,21.73,NE,45,5.4,5.8,48,0.00,,---,0.00,VWS V14.01,2013-02-01 02:52:00,
2013-01-31 19:58:00,22.8,6.5,21.73,NW,315,3.6,4.9,49,0.00,,---,0.00,VWS V14.01,2013-02-01 02:58:00,
2013-01-31 20:03:00,22.3,6.0,21.73,NW,315,0.0,0.0,49,0.00,,---,0.00,VWS V14.01,2013-02-01 03:03:00,
2013-01-31 20:08:00,22.6,6.4,21.73,North,0,0.0,0.0,49,0.00,,---,0.00,VWS V14.01,2013-02-01 03:08:00,
2013-01-31 20:13:00,22.3,6.5,21.73,North,0,0.0,0.0,50,0.00,,---,0.00,VWS V14.01,2013-02-01 03:13:00,
2013-01-31 20:18:00,21.9,6.6,21.73,North,0,0.0,0.0,51,0.00,,---,0.00,VWS V14.01,2013-02-01 03:18:00,
2013-01-31 20:23:00,22.5,7.5,21.73,NW,315,2.7,4.0,52,0.00,,---,0.00,VWS V14.01,2013-02-01 03:23:00,
2013-01-31 20:28:00,22.3,7.3,21.73,NW,315,5.8,5.8,52,0.00,,---,0.00,VWS V14.01,2013-02-01 03:28:00,
2013-01-31 20:33:00,22.3,7.8,21.73,NW,315,2.2,4.0,53,0.00,,---,0.00,VWS V14.01,2013-02-01 03:33:00,
2013-01-31 20:38:00,21.9,7.4,21.73,NW,315,3.1,4.0,53,0.00,,---,0.00,VWS V14.01,2013-02-01 03:38:00,
2013-01-31 20:43:00,22.5,7.9,21.73,NW,315,3.1,4.0,53,0.00,,---,0.00,VWS V14.01,2013-02-01 03:43:00,
2013-01-31 20:48:00,22.3,7.8,21.73,South,180,4.0,4.0,53,0.00,,---,0.00,VWS V14.01,2013-02-01 03:48:00,
2013-01-31 20:53:00,22.1,7.6,21.73,NW,315,3.1,5.8,53,0.00,,---,0.00,VWS V14.01,2013-02-01 03:53:00,
2013-01-31 20:58:00,22.3,7.8,21.73,NE,45,3.1,4.5,53,0.00,,---,0.00,VWS V14.01,2013-02-01 03:58:00,
2013-01-31 21:03:00,22.1,8.0,21.73,North,0,2.2,4.0,54,0.00,,---,0.00,VWS V14.01,2013-02-01 04:03:00,
2013-01-31 21:09:00,22.1,7.6,21.73,North,0,5.8,5.8,53,0.00,,---,0.00,VWS V14.01,2013-02-01 04:09:00,
2013-01-31 21:14:00,22.5,7.9,21.73,West,270,0.0,5.4,53,0.00,,---,0.00,VWS V14.01,2013-02-01 04:14:00,
2013-01-31 21:19:00,22.1,7.6,21.73,NE,45,6.3,6.3,53,0.00,,---,0.00,VWS V14.01,2013-02-01 04:19:00,
2013-01-31 21:24:00,21.9,7.4,21.73,NE,45,5.4,5.4,53,0.00,,---,0.00,VWS V14.01,2013-02-01 04:24:00,
2013-01-31 21:29:00,22.1,7.6,21.73,NW,315,2.7,5.4,53,0.00,,---,0.00,VWS V14.01,2013-02-01 04:29:00,
2013-01-31 21:34:00,22.5,7.9,21.73,NNW,338,8.1,9.2,53,0.00,,---,0.00,VWS V14.01,2013-02-01 04:34:00,
2013-01-31 21:39:00,22.8,7.8,21.73,NW,315,5.8,5.8,52,0.00,,---,0.00,VWS V14.01,2013-02-01 04:39:00,
2013-01-31 21:44:00,22.5,7.5,21.73,NW,315,0.0,2.2,52,0.00,,---,0.00,VWS V14.01,2013-02-01 04:44:00,
2013-01-31 21:49:00,22.1,7.2,21.73,SW,225,4.9,4.9,52,0.00,,---,0.00,VWS V14.01,2013-02-01 04:49:00,
2013-01-31 21:54:00,21.9,7.4,21.73,East,90,0.0,4.0,53,0.00,,---,0.00,VWS V14.01,2013-02-01 04:54:00,
2013-01-31 21:59:00,22.5,7.9,21.73,WNW,292,5.8,10.1,53,0.00,,---,0.00,VWS V14.01,2013-02-01 04:59:00,
2013-01-31 22:00:00,22.6,7.7,21.73,SW,225,7.6,10.1,52,0.00,,---,0.00,VWS V14.01,2013-02-01 05:00:00,
2013-01-31 22:03:00,22.8,7.8,21.73,SW,225,4.5,7.2,52,0.00,,---,0.00,VWS V14.01,2013-02-01 05:03:00,
2013-01-31 22:05:00,22.8,7.8,21.73,SSW,202,3.6,4.0,52,0.00,,---,0.00,VWS V14.01,2013-02-01 05:05:00,
2013-01-31 22:07:00,22.8,7.8,21.73,West,270,2.2,3.1,52,0.00,,---,0.00,VWS V14.01,2013-02-01 05:07:00,
2013-01-31 22:12:00,22.8,7.8,21.73,West,270,2.7,7.2,52,0.00,,---,0.00,VWS V14.01,2013-02-01 05:12:00,
2013-01-31 22:17:00,22.8,7.8,21.76,NW,315,9.2,9.2,52,0.00,,---,0.00,VWS V14.01,2013-02-01 05:17:00,
2013-01-31 22:22:00,22.8,7.8,21.76,North,0,2.2,3.1,52,0.00,,---,0.00,VWS V14.01,2013-02-01 05:22:00,
2013-01-31 22:27:00,22.6,7.7,21.76,NE,45,0.0,4.0,52,0.00,,---,0.00,VWS V14.01,2013-02-01 05:27:00,
2013-01-31 22:32:00,21.9,7.4,21.73,NE,45,0.0,0.0,53,0.00,,---,0.00,VWS V14.01,2013-02-01 05:32:00,
2013-01-31 22:37:00,22.1,7.6,21.73,SE,135,3.6,4.0,53,0.00,,---,0.00,VWS V14.01,2013-02-01 05:37:00,
2013-01-31 22:42:00,22.1,7.6,21.73,NW,315,3.1,8.3,53,0.00,,---,0.00,VWS V14.01,2013-02-01 05:42:00,
2013-01-31 22:47:00,22.8,7.8,21.76,South,180,2.7,4.5,52,0.00,,---,0.00,VWS V14.01,2013-02-01 05:47:00,
2013-01-31 22:53:00,23.2,7.8,21.76,NW,315,7.2,8.3,51,0.00,,---,0.00,VWS V14.01,2013-02-01 05:53:00,
2013-01-31 22:58:00,23.4,7.5,21.76,SW,225,3.6,8.7,50,0.00,,---,0.00,VWS V14.01,2013-02-01 05:58:00,
2013-01-31 23:03:00,23.9,7.5,21.76,SW,225,3.6,3.6,49,0.00,,---,0.00,VWS V14.01,2013-02-01 06:03:00,
2013-01-31 23:08:00,23.5,7.2,21.76,NE,45,3.1,3.1,49,0.00,,---,0.00,VWS V14.01,2013-02-01 06:08:00,
2013-01-31 23:13:00,23.2,7.3,21.76,NW,315,0.0,2.7,50,0.00,,---,0.00,VWS V14.01,2013-02-01 06:13:00,
2013-01-31 23:18:00,23.5,7.2,21.76,WSW,248,2.2,3.6,49,0.00,,---,0.00,VWS V14.01,2013-02-01 06:18:00,
2013-01-31 23:23:00,23.4,7.0,21.76,NW,315,10.1,11.4,49,0.00,,---,0.00,VWS V14.01,2013-02-01 06:23:00,
2013-01-31 23:28:00,23.7,7.4,21.76,NW,315,2.7,4.9,49,0.00,,---,0.00,VWS V14.01,2013-02-01 06:28:00,
2013-01-31 23:33:00,23.4,7.0,21.73,West,270,2.2,2.7,49,0.00,,---,0.00,VWS V14.01,2013-02-01 06:33:00,
2013-01-31 23:38:00,23.4,7.0,21.73,NW,315,8.7,10.5,49,0.00,,---,0.00,VWS V14.01,2013-02-01 06:38:00,
2013-01-31 23:43:00,23.5,7.2,21.73,WNW,292,6.3,8.1,49,0.00,,---,0.00,VWS V14.01,2013-02-01 06:43:00,
2013-01-31 23:48:00,23.9,7.1,21.73,SW,225,8.3,8.3,48,0.00,,---,0.00,VWS V14.01,2013-02-01 06:48:00,
2013-01-31 23:53:00,23.7,6.9,21.73,North,0,3.1,5.4,48,0.00,,---,0.00,VWS V14.01,2013-02-01 06:53:00,
2013-01-31 23:58:00,23.5,6.8,21.73,South,180,3.6,3.6,48,0.00,,---,0.00,VWS V14.01,2013-02-01 06:58:00,